Simultaneous Nadir Overpasses (SNOs) Predictions

Prediction of SNOs between GOES-15 and LANDSAT-8 Satellite Orbit:

Table of predicted SNOs for the next 14.0 days since TLE Epoch: 2/3/2024
Index Date Time (GOES-15) GOES-15 Lat,Lon LANDSAT-8 Lat,Lon Distance(km) Time Diff (sec)
1 02/03/2024 17:59:42 -0.01, 61.60 0.24, 62.79 135.42 80
2 02/04/2024 06:20:57 0.01, 61.62 0.84, 57.63 452.61 80
3 02/05/2024 17:47:32 0.00, 61.58 0.90, 65.74 473.01 80
4 02/06/2024 06:08:47 -0.02, 61.59 0.18, 60.58 115.40 80
5 02/08/2024 05:59:16 -0.00, 61.58 -0.44, 63.53 222.31 80
6 02/08/2024 18:20:40 0.00, 61.55 -0.68, 58.34 364.79 80
7 02/10/2024 18:08:29 0.00, 61.54 -0.04, 61.29 27.73 80
8 02/12/2024 17:53:37 -0.00, 61.53 0.56, 64.25 309.43 80
9 02/13/2024 06:14:53 0.00, 61.56 0.51, 59.09 280.28 80
10 02/15/2024 06:05:21 0.00, 61.55 -0.10, 62.05 56.72 80
